Location: Brighton Point
(40.6144°N, 111.7933°W)
Time: 17:50:10
(UTC+00:00)

ISS - Pass Details

Date: 14 March 2021
Orbit: 418 x 421 km, 51.6° (Epoch: 21 April)

Event Time Altitude Azimuth Distance (km) Brightness Sun altitude
Exits shadow 12:36:32 13° 214° (SW) 1,333 -1.6 -12.8°
Drops below altitude 10° 12:37:28 10° 198° (SSW) 1,487 -1.2 -12.6°
Sets 12:40:20 0° 171° (S) 2,345 0.1 -12.1°
